Other Public Products
Issued by NWS Grand Forks, ND

Home | Current Version | Previous Version | Text Only | Print | Product List | Glossary Off
Versions: 1 2 3 4 5 6 7 8 9 10 11 12 13 14 15 16 17 18 19 20 21 22 23 24 25 26 27 28 29 30 31 32 33 34 35 36 37 38 39 40 41 42 43 44 45 46 47 48 49 50

000
FPUS83 KFGF 170131
OPUFGF
PRAIRIE TO PINES WEATHER ROUNDUP
NATIONAL WEATHER SERVICE EASTERN NORTH DAKOTA/GRAND FORKS ND
700 PM CST THU NOV 16 2017

 **SATELLITE DATA USED TO AUGMENT SKY COVER AT AUTOMATED STATIONS**
 *****  WEATHER ACROSS EASTERN NORTH DAKOTA  *****

CITY           SKY/WX    TMP DP  RH WIND       PRES   REMARKS
GRAND FORKS    CLOUDY    31  27  85 SE21      29.71F WCI  18
GRND FORKS AFB MOCLDY    34  27  75 S28G35    29.69F WCI  20
GRND FORKS NWS   N/A     30 N/A N/A S22         N/A  WCI  17
BUXTON           N/A     31  27  83 S23         N/A  WCI  18
DEVILS LAKE    FAIR      28  24  85 SE21G30   29.60F WCI  15
FARGO          FAIR      33  25  72 SE28G41   29.76F WCI  20
WAHPETON ARPT  NOT AVBL
$$

 *****  WEATHER ACROSS CENTRAL AND WESTERN NORTH DAKOTA  *****

CITY           SKY/WX    TMP DP  RH WIND       PRES   REMARKS
JAMESTOWN      FAIR      29  24  82 SE20      29.61F WCI  16
BISMARCK       FAIR      41  29  62 SE9       29.56S
MINOT          FAIR      29  23  78 S5        29.50R WCI  24
MINOT AFB      FAIR      28  23  82 S9        29.48S WCI  19
GARRISON         N/A     33  27  78 S8        29.49F
WILLISTON      FAIR      32  23  69 CALM      29.49R
DICKINSON      MOCLDY    36  25  64 W12       29.50R
HETTINGER      MOCLDY    35  25  66 S5        29.51R
$$

 *****  OTHER OBSERVATIONS NORTHEAST NORTH DAKOTA  *****

CITY           SKY/WX    TMP DP  RH WIND       PRES   REMARKS
WALHALLA       FAIR      28  30 100 SE22G30   29.65F WCI  15
LANGDON        FAIR      28  28 100 S25G36    29.59F WCI  14
CAVALIER       CLOUDY    30  25  80 SE18G28   29.66F WCI  18
GRAFTON        FAIR      28  27  93 SE23G30   29.71F WCI  14
CANDO          FAIR      27  27 100 SE14      29.60F WCI  15
FORT TOTTEN      N/A     28  24  83 S15       29.95S WCI  16
ROLLA          FAIR      25  25 100 S23G30    29.53F WCI  10
RUGBY          FAIR      27  25  93 SE14      29.53F WCI  15
 ***** THE ABOVE OBSERVATIONS ARE NON NWS ARE NOT QUALITY
        CONTROLLED AND MAY MIS-REPORT RAIN FOR SNOW...
$$

 *****  OTHER OBSERVATIONS SOUTHEAST NORTH DAKOTA *****

CITY           SKY/WX    TMP DP  RH WIND       PRES   REMARKS
COOPERSTOWN    FAIR      28  25  86 SE29G39   29.63F WCI  13
VALLEY CITY    FLURRIES  27  27 100 SE23G30   29.66F WCI  12
OAKES            N/A     37  27  65 MISG      29.67F
GWINNER          N/A     30  25  80 SE24      29.71F WCI  16
SHEYENNE NWR     N/A     30  26  84 SE18      29.95S WCI  18
BUFFALO          N/A     29  23  78 N22G36      N/A  WCI  15
WYNDMERE       NOT AVBL
 ***** THE ABOVE OBSERVATIONS ARE NON NWS ARE NOT QUALITY
       CONTROLLED AND MAY MIS-REPORT RAIN FOR SNOW...
$$

  *****  WEATHER ACROSS NORTHERN MINNESOTA  *****

CITY           SKY/WX    TMP DP  RH WIND       PRES   REMARKS
FLAG ISLAND    CLOUDY    25  19  80 SE20G26   29.84F WCI  11
WARROAD        CLOUDY    27  21  80 SE17G25   29.81F WCI  14
ROSEAU         MOCLDY    28  21  74 SE18G24   29.79F WCI  16
HALLOCK        FAIR      28  25  86 CALM      29.71F
THF RVR FALLS  FAIR      29  23  78 SE20G28   29.78F WCI  16
HALSTAD          N/A     32  25  76 S20         N/A  WCI  20
FOSSTON        FAIR      27  21  80 SE20G29   29.76F WCI  13
BAUDETTE       CLOUDY    26  21  81 SE20G26   29.87F WCI  12
WASKISH        CLOUDY    27  21  80 SE17G28   29.86F WCI  14
CROOKSTON      FAIR      32  25  74 S24       29.75F WCI  19
$$
  *****  WEATHER ACROSS CENTRAL AND WEST MINNESOTA  *****

CITY           SKY/WX    TMP DP  RH WIND       PRES   REMARKS
BEMIDJI        FAIR      27  22  80 SE22G30   29.86F WCI  13
PARK RAPIDS    FAIR      28  21  75 SE18G28   29.89F WCI  15
WADENA         FAIR      27  21  80 SE23      29.88F WCI  12
DETROIT LAKES  FAIR      30  27  86 SE23G31   29.81F WCI  17
MOORHEAD       FAIR      32  25  74 SE29G39   29.76F WCI  18
FERGUS FALLS   FAIR      30  25  80 SE20G31   29.85F WCI  18
ELBOW LAKE     FAIR      29  26  86 E21       29.83F WCI  16
MORRIS MN      FAIR      30  27  86 SE28G33   29.84F WCI  16
STAPLES        FAIR      27  21  80 SE14G21   29.92F WCI  15
WHEATON        FAIR      30  25  80 SE21G31   29.83S WCI  17
$$
  *****  WEATHER ELSEWHERE ACROSS MINNESOTA  *****

CITY           SKY/WX    TMP DP  RH WIND       PRES   REMARKS
DULUTH         CLOUDY    26  23  88 SE15      30.05S WCI  14
INTRNTL FALLS  CLOUDY    26  20  77 SE17G25   29.97F WCI  13
ELY            CLOUDY    25  23  93 SE14      30.02F WCI  13
CLOQUET        CLOUDY    27  21  80 SE8       30.05S WCI  18
BRAINERD       FAIR      30  22  72 SE13G24   29.96F WCI  20
HIBBING        CLOUDY    25  21  85 SE15      30.02F WCI  13
ALEXANDRIA     CLOUDY    29  25  85 SE20G31   29.89F WCI  16
SAINT CLOUD    CLOUDY    30  24  78 SE14G21   29.99F WCI  19
MINNEAPOLIS    CLOUDY    33  27  78 SE15      30.04F WCI  23
$$

  *****  WEATHER ACROSS SOUTH DAKOTA  *****

CITY           SKY/WX    TMP DP  RH WIND       PRES   REMARKS
SIOUX FALLS    CLOUDY    38  27  64 SE15      29.81F
BROOKINGS      FAIR      33  25  72 S24G32    29.78F WCI  20
WATERTOWN      FAIR      34  25  69 SE21G28   29.73F WCI  22
HURON          FAIR      41  27  57 SE24G36   29.66F
SISSETON         N/A     30  25  81 SE24G33   29.76F WCI  16
ABERDEEN       FAIR      39  26  59 SE25G32   29.65F
MITCHELL       FAIR      44  28  53 SE22G30   29.71F
PIERRE         FAIR      53  32  44 SE16      29.50F
MOBRIDGE       FAIR      42  28  57 E13       29.51F
RAPID CITY     FAIR      65  27  23 SW15      29.51R
$$

  *****  SOME WEATHER IN NEARBY STATES *****

CITY           SKY/WX    TMP DP  RH WIND       PRES   REMARKS
GLASGOW MT     FAIR      41  26  55 W15       29.50R
GREAT FALLS MT FAIR      34  21  59 SW14      29.56R WCI  25
CHEYENNE WY    FAIR      55  24  30 SW15      29.78S
SCOTTSBLUFF NE FAIR      65  24  21 W10G22    29.66R
OMAHA NE       FAIR      42  27  55 SE15      29.96F
DES MOINES IA  FAIR      36  28  73 E12       30.07F
DAVENPORT IA   FAIR      32  27  81 SE8       30.22F WCI  25
CHICAGO IL     CLOUDY    37  27  67 E9        30.24F
EAU CLAIRE WI  FAIR      32  23  69 SE12      30.10F WCI  23
LA CROSSE WI   FAIR      36  26  67 SE12      30.14F
$$

  *****  SOME NATIONAL WEATHER *****

CITY           SKY/WX    TMP DP  RH WIND       PRES   REMARKS
LA GUARDIA NY  FAIR      49  34  56 W16G29    29.86R
RALEIGH NC     FAIR      48  38  68 CALM      30.04R
ATLANTA GA     FAIR      54  40  59 NW9       30.11R
NEW ORLEANS LA FAIR      67  59  75 S7        30.11R
OKLAHOMA CITY  CLOUDY    57  55  93 SE13      29.99R FOG
ALBUQUERQUE NM MOCLDY    67  22  18 SW5       30.06R
SALT LAKE CITY CLOUDY    65  35  33 S23G31    29.70F
LOS ANGELES CA MOCLDY    67  57  70 W10       29.95R
BOISE ID       MOCLDY    47  30  51 NW13      29.71R
SEATTLE WA     MOCLDY    43  41  93 S12       29.65S
$$

*** WEATHER ACROSS MANITOBA...SASKATCHEWAN AND ONTARIO ***
                ***ONTARIO***

CITY           SKY/WX    TMP DP  RH WIND       PRES   REMARKS
GERALDTON      FLURRIES  14   9  79 E6        30.25F WCI   5
THUNDER BAY    FLURRIES  21  18  86 E9        30.23F WCI  11
SIOUX LOOKOUT  FLURRIES  16  12  86 SE10      30.03F WCI   3
TORONTO        MOCLDY    36  25  64 NW23      30.06R
BIG TROUT LK   CLOUDY     9   3  78 SE14      30.16F WCI  -8
PICKLE LAKE    FLURRIES  10   5  79 SE20G26   30.12F WCI  -8
DRYDEN         CLOUDY    19  16  86 SE15      29.97F WCI   5
KENORA         CLOUDY    21  18  86 SE20G30   29.86F WCI   6
$$
                *** MANITOBA***

CITY           SKY/WX    TMP DP  RH WIND       PRES   REMARKS
BRANDON        CLOUDY    27  23  86 S14G20    29.54F WCI  15
DAUPHIN        CLOUDY    27  23  86 S12G17    29.50F WCI  16
ISLAND LAKE    FLURRIES  12   7  79 SE24G35   29.83F WCI  -8
PILOT MOUND      N/A     27  25  93 S26G35      N/A  WCI  11
THE PAS        SNOW      16  12  86 SE14G24   29.48F VSB 1/2 WCI   1
THOMPSON       MOCLDY     7   1  78 E8G21     29.70F WCI  -6
WINNIPEG       MOCLDY    27  21  80 SE25G35   29.68F WCI  11
LYNN LAKE      LGT SNOW   3   1  92 SE14G20   29.57F WCI -15
CHURCHILL      CLOUDY     0  -8  71 SE18      30.07F WCI -22
GILLAM         PTCLDY     3  -4  72 SE10G20   29.94  WCI -12
$$
                ***SASKATCHEWAN***

CITY           SKY/WX    TMP DP  RH WIND       PRES   REMARKS
ESTEVAN        MOCLDY    23  21  93 S6        29.45F WCI  16
KINDERSLEY     FLURRIES  10   5  79 W18G26    29.49R WCI  -8
LLOYDMINSTER   MOCLDY     5   1  85 NW13      29.47R WCI -12
PRINCE ALBERT  LGT SNOW  16  12  86 N8        29.35S WCI   5
REGINA         CLOUDY    32  28  86 W24       29.38R WCI  19
YORKTON        FLURRIES  23  21  93 S18G25    29.35F WC



USA.gov is the U.S. government's official web portal to all federal, state and local government web resources and services.